Dewpoint
54 54 54 54 54 54 53 53 53 52 51 49 47 51 42 40 18 20 18 19 23 25 25 25 21 12 12 15 20 21 21 20 16 19 18 19 18 19 19 18 17 17 18 18 18 19 20 19 18 20 19 18 17 17 18 19 19 17 16 26 24 35 21 20 20 19 14 13 13 15 15 15 15 14 14 14 15 15 16 17 22 20 19 31 38 44 47
54 54 54 54 54 53 53 53 53 52 52 53 53 45 38 34 18 17 13 22 24 22 20 18 14 13 13 15 16 15 21 22 21 20 20 21 19 19 18 18 20 21 18 16 19 18 23 19 18 18 18 18 17 17 17 18 17 20 22 29 26 20 26 24 23 22 19 14 18 15 13 13 12 11 13 14 8 13 17 20 30 26 21 25 37 43 45
54 54 54 54 54 53 53 53 53 53 52 52 53 45 42 40 33 24 17 22 16 11 15 18 16 19 20 19 19 18 19 20 22 21 20 21 21 20 19 19 18 20 19 19 19 19 30 31 20 18 18 18 17 17 16 16 15 19 27 44 26 24 28 27 21 22 18 16 17 16 15 12 13 13 12 14 15 17 18 20 30 23 30 39 39 43 48
54 54 54 54 53 53 53 53 53 53 52 52 53 47 43 38 28 21 17 17 16 19 15 15 15 18 21 17 12 18 18 15 19 20 20 20 21 21 21 18 19 18 18 20 19 19 19 19 23 20 17 17 17 17 17 15 15 33 44 45 24 24 27 32 34 31 27 28 34 28 19 12 10 10 11 11 8 14 20 24 26 23 28 34 45 46 46
54 53 54 54 53 53 53 53 53 52 52 52 53 51 49 35 20 15 24 27 20 16 14 14 13 15 15 23 13 16 12 16 17 15 21 21 21 21 20 20 23 21 19 22 23 22 24 23 23 22 21 22 19 18 18 17 23 43 40 26 17 29 26 27 34 32 27 20 24 23 22 17 12 11 12 12 14 17 18 19 21 38 27 42 48 48 45
53 53 54 54 54 53 53 53 53 52 52 51 56 46 39 23 19 20 25 23 18 21 17 18 15 12 15 14 21 19 19 20 24 19 16 21 18 23 23 21 24 24 27 26 35 29 32 31 29 24 24 22 18 17 17 18 22 29 20 20 23 28 23 20 22 22 23 20 16 18 20 17 17 11 8 7 14 18 19 22 22 26 26 39 48 49 46
53 53 54 54 54 54 53 53 53 52 50 51 53 47 33 30 25 16 14 20 15 14 12 17 17 21 23 23 20 16 15 13 14 21 22 21 22 24 28 26 25 27 28 36 34 33 31 35 32 36 29 28 25 21 20 24 22 21 25 25 32 26 20 23 18 18 17 17 17 18 16 15 16 13 15 15 14 15 15 17 19 20 33 47 47 47 47
53 53 53 54 54 54 54 53 53 52 50 54 48 30 30 29 31 34 27 22 22 22 20 19 19 20 30 28 22 23 19 19 20 21 24 25 26 23 26 25 28 28 30 35 33 32 32 32 34 33 29 26 29 31 29 26 28 27 25 22 32 24 26 28 22 23 19 17 16 15 16 16 16 15 14 14 13 13 15 14 14 16 44 38 44 47 48
53 53 53 54 54 54 54 53 53 52 51 55 46 34 36 39 34 42 39 30 17 28 26 28 29 27 27 24 17 19 16 16 17 20 24 26 27 25 25 27 26 27 29 31 29 26 30 29 25 24 25 27 26 29 31 27 27 34 29 30 28 24 24 26 25 24 19 16 15 14 13 13 14 15 14 14 13 14 16 22 22 25 35 40 45 46 47
53 53 53 53 54 54 54 54 54 52 51 55 55 34 40 45 43 41 39 35 32 26 17 21 28 25 25 26 24 21 20 22 26 22 21 26 27 27 26 27 29 28 29 27 25 24 24 22 22 24 21 23 22 21 21 21 25 27 30 32 25 27 25 21 23 20 18 16 15 13 12 13 13 14 13 14 15 15 14 18 23 24 24 43 45 43 48
53 53 53 53 54 54 54 54 54 52 52 54 55 50 39 44 47 49 42 38 27 24 28 26 25 24 17 16 17 19 20 22 25 31 24 21 18 26 25 29 31 27 29 24 21 21 20 21 20 19 20 21 21 23 23 22 21 20 24 24 28 30 27 27 27 21 19 14 13 17 17 14 15 26 28 18 13 14 14 19 23 29 28 40 47 49 49
53 53 53 53 53 54 54 54 54 53 51 54 56 50 44 50 50 53 47 40 23 16 27 24 21 19 24 19 25 26 27 25 24 25 28 24 24 28 30 26 33 30 19 21 24 22 24 20 20 22 20 20 20 18 15 21 22 28 23 24 32 31 28 27 29 22 19 18 20 18 16 15 32 27 31 31 27 19 22 27 31 34 41 46 47 47 47
53 53 53 53 53 54 54 54 54 54 53 53 55 52 47 52 51 51 48 40 39 30 25 25 24 23 21 25 24 23 23 22 20 25 26 30 28 24 26 30 28 20 24 26 24 28 29 28 28 27 24 24 20 22 23 25 24 23 24 26 30 31 30 25 24 23 24 22 21 19 18 34 30 30 33 32 31 30 30 33 34 34 38 43 46 47 48
53 53 52 53 53 53 54 54 54 54 53 53 53 56 50 54 52 53 53 49 33 24 24 24 22 23 26 25 28 25 25 27 31 33 29 31 31 28 25 24 22 26 25 27 29 30 30 20 23 24 25 24 25 23 24 28 24 23 27 26 24 28 33 30 29 29 22 20 20 20 34 30 34 31 35 28 30 32 31 30 32 34 39 42 45 46 46
53 52 52 52 53 53 54 54 54 54 54 52 52 55 52 55 56 55 55 52 38 25 33 34 29 31 30 26 26 29 30 31 30 33 27 21 31 27 26 25 26 26 23 29 32 33 31 30 29 26 29 26 22 24 30 28 28 24 24 24 27 32 29 34 32 28 23 18 16 20 26 22 25 36 34 30 36 31 31 33 33 37 37 41 43 43 42
53 52 52 52 53 53 53 54 54 54 54 52 54 55 54 56 59 56 55 53 43 39 32 34 33 30 33 27 30 32 36 32 39 35 32 32 33 29 25 27 28 25 28 24 34 34 34 30 27 24 20 28 29 26 22 29 27 29 26 30 27 27 29 33 29 28 25 23 20 19 20 24 34 35 35 37 35 38 37 29 30 38 39 40 41 42 41
53 52 52 52 52 53 53 53 53 54 54 53 51 54 55 58 57 56 56 53 45 35 32 30 29 31 33 32 27 28 35 36 34 31 33 35 34 31 29 27 32 30 32 30 34 33 33 31 30 28 29 28 22 21 26 21 20 29 35 34 31 31 24 18 14 20 22 22 19 18 22 35 39 39 34 31 32 36 30 20 20 39 37 38 40 40 38
52 52 52 52 52 52 53 53 53 53 53 53 52 53 56 59 59 58 53 50 45 40 31 27 29 31 37 39 39 36 31 32 31 30 34 36 35 31 31 28 27 30 32 29 35 32 32 28 27 25 20 32 30 23 13 24 19 19 25 30 29 27 24 20 18 14 16 22 20 16 37 40 39 35 31 28 30 27 21 19 31 39 39 39 39 41 36
52 52 52 52 52 52 52 53 53 53 53 52 53 56 55 56 58 58 53 47 45 41 36 33 30 32 37 38 36 31 32 33 39 35 34 33 36 34 28 31 26 31 34 33 33 32 29 31 31 27 24 33 32 24 25 23 23 25 28 29 29 28 29 28 22 16 17 16 18 15 36 39 38 33 33 31 31 21 17 41 44 41 41 39 37 34 35
52 52 52 52 52 52 52 52 52 53 53 53 52 53 54 58 57 57 52 46 45 43 41 38 33 32 32 28 33 33 34 30 32 31 33 33 41 35 33 30 34 29 34 34 29 31 27 28 27 30 24 23 32 33 29 28 28 25 26 31 28 27 24 21 20 22 20 22 18 16 22 41 36 36 32 32 28 38 44 43 41 42 39 39 39 38 37
52 52 51 52 52 52 52 52 52 52 53 53 51 53 54 61 59 57 55 51 45 44 42 43 38 33 34 32 30 31 34 36 40 37 38 36 43 39 29 32 36 31 32 34 30 31 35 29 39 30 31 27 33 31 26 27 29 30 28 26 23 27 22 21 22 23 18 17 18 22 36 39 39 36 32 29 41 43 44 41 38 40 40 40 40 40 38
52 51 51 51 52 52 52 52 52 52 52 53 52 55 55 58 60 59 56 54 47 42 42 41 37 34 32 34 35 36 34 34 37 40 40 41 45 35 36 39 38 36 37 37 33 34 33 34 33 30 30 31 32 27 31 26 24 29 32 32 24 30 26 35 31 33 26 28 33 35 39 39 38 39 39 42 42 43 42 41 40 40 38 41 40 40 39
52 51 51 51 51 51 51 51 51 52 52 53 53 56 54 53 53 56 56 51 51 47 43 39 37 37 37 33 34 37 37 34 35 35 37 36 38 37 33 33 35 40 40 39 35 35 35 35 33 36 33 32 33 33 33 29 28 31 30 32 27 35 34 40 36 31 33 33 35 41 39 39 37 38 43 42 42 40 38 39 38 38 40 38 38 39 37
52 51 51 51 51 51 51 51 51 51 52 52 52 54 54 53 55 56 51 50 50 47 46 45 41 40 42 39 37 36 34 34 36 39 42 43 35 37 38 38 36 37 40 44 44 38 38 37 37 36 33 35 36 34 31 31 31 33 31 29 32 34 33 33 30 32 27 25 34 36 37 38 39 38 42 43 42 40 37 38 38 40 38 36 41 42 42
51 51 51 51 51 51 51 51 51 51 51 52 52 53 56 56 58 55 50 45 45 46 42 46 41 41 39 37 37 36 37 40 41 41 37 40 40 37 39 43 40 43 46 47 48 42 42 39 37 38 38 40 38 31 35 33 32 39 31 33 37 41 46 36 32 31 27 27 32 34 37 38 38 37 39 39 38 38 37 38 35 40 42 40 41 42 42
51 51 51 51 51 51 51 50 51 51 51 52 52 53 55 55 57 56 54 55 53 51 44 42 42 41 40 38 37 40 43 41 40 41 40 39 38 38 38 42 43 44 44 43 44 42 40 39 39 38 35 37 40 34 35 44 41 41 37 35 40 40 40 33 42 39 34 32 32 35 36 37 37 37 39 40 38 39 39 38 37 38 40 41 41 39 39
51 51 50 50 50 50 50 50 50 50 51 52 51 54 56 56 57 55 53 54 47 43 42 41 51 44 42 40 41 38 38 38 38 40 41 41 39 40 41 43 44 44 43 42 42 42 41 40 39 37 40 39 45 43 42 41 39 39 37 38 40 39 36 41 41 39 37 41 42 43 35 34 34 36 37 39 40 41 42 41 39 37 40 41 41 40 40
51 51 50 50 51 50 50 50 50 50 50 51 52 54 57 56 57 56 55 56 54 48 49 44 42 45 44 39 40 39 40 38 38 40 39 39 40 40 41 42 45 42 43 42 42 41 40 39 38 45 43 44 41 39 42 43 43 40 39 38 40 39 42 41 38 37 35 46 44 46 44 41 41 40 38 38 38 38 39 42 41 39 38 38 41 41 41
51 50 50 50 50 50 50 50 50 50 51 51 52 53 55 57 56 54 55 56 55 51 50 48 45 43 40 43 39 38 41 41 41 40 40 39 40 40 41 42 43 43 43 43 42 43 42 43 46 44 44 50 43 41 42 38 37 37 38 43 44 44 45 45 44 44 43 43 43 45 46 46 48 43 44 42 42 40 37 38 42 41 39 39 41 40 41
51 50 50 50 50 50 50 50 50 50 51 51 53 54 51 52 55 56 54 56 56 55 48 46 41 43 45 43 42 40 41 42 40 40 42 40 41 42 43 45 45 43 44 44 46 43 48 45 44 47 48 50 43 42 40 37 36 35 40 42 46 45 45 45 46 45 43 43 44 45 45 44 45 45 44 44 44 42 39 39 39 40 39 39 41 43 41
50 50 50 50 50 49 49 49 50 50 51 52 53 51 46 45 53 54 52 55 57 54 50 48 44 42 42 45 45 43 40 42 44 42 42 40 43 44 47 47 47 47 46 46 45 44 45 42 41 46 48 48 47 43 38 36 35 36 39 41 44 44 46 46 45 45 44 44 44 44 44 44 44 42 42 43 47 46 42 40 40 42 43 42 41 45 44
50 50 50 50 49 49 49 49 50 50 51 53 52 52 52 52 55 54 53 55 56 53 50 44 43 43 40 43 45 44 42 42 42 43 45 43 45 45 47 47 47 48 47 45 46 45 44 46 43 44 45 48 46 42 40 38 35 37 40 45 45 45 46 46 45 44 44 45 44 44 42 42 42 41 42 45 50 48 48 50 42 40 43 44 42 41 42
49 50 49 49 49 49 49 49 50 50 52 52 51 51 50 51 51 54 53 57 56 54 49 45 42 43 41 50 47 45 43 45 44 44 50 52 49 48 45 47 46 46 48 45 42 41 43 43 43 40 44 49 44 41 40 37 38 39 40 42 45 45 45 45 44 44 45 45 45 44 42 42 42 42 50 49 49 49 49 49 50 42 39 40 39 40 42
50 49 49 49 49 49 50 50 50 50 50 51 52 50 51 51 53 51 55 57 53 51 49 46 44 42 40 46 45 49 44 43 46 46 46 53 53 51 50 45 46 44 47 42 43 43 43 43 41 43 45 44 45 41 37 38 39 41 42 43 44 44 44 45 44 45 46 46 45 45 46 45 46 48 48 47 47 48 49 49 45 40 39 39 39 39 40
49 49 49 50 50 50 51 51 52 53 54 53 50 53 51 51 51 53 54 56 49 47 47 47 45 42 40 46 41 49 52 45 45 48 49 46 48 46 49 43 47 42 48 46 44 42 40 40 44 43 41 40 41 39 39 38 42 42 42 42 42 43 43 44 44 46 46 47 46 47 45 46 46 47 47 46 45 45 45 46 44 41 40 39 40 40 41
49 49 50 51 51 51 53 52 52 53 53 52 54 54 54 54 55 57 56 56 53 51 48 47 46 44 41 40 42 47 48 45 46 49 49 46 47 47 44 43 43 46 48 46 40 39 39 45 41 36 41 38 37 39 39 44 44 43 43 43 44 44 45 46 44 44 45 47 47 47 47 47 45 46 47 47 47 46 46 44 42 42 41 41 42 43 43
50 50 51 52 52 53 53 54 55 51 52 50 52 54 54 54 56 55 55 52 54 55 49 48 46 44 47 48 46 48 44 41 46 45 45 44 44 50 48 45 41 45 44 42 40 38 44 46 44 40 37 37 40 44 47 46 46 46 46 47 47 48 48 47 45 44 44 44 45 48 47 47 48 49 49 47 47 47 46 46 43 43 42 45 42 42 42
50 51 52 53 52 51 50 47 50 53 56 55 55 54 54 52 50 49 50 46 48 51 48 47 44 44 45 43 40 52 44 43 45 42 46 48 45 45 45 42 43 40 38 35 38 43 43 43 41 38 37 39 47 46 46 46 47 47 47 48 48 47 47 47 46 44 42 42 44 43 43 45 47 48 47 48 48 48 47 46 46 46 51 48 44 43 40
50 52 51 52 51 45 51 53 55 56 52 53 54 49 48 51 47 45 47 47 49 46 46 44 43 44 43 45 48 51 47 48 48 45 39 47 42 39 39 35 38 39 34 35 37 43 38 40 38 37 37 43 43 45 47 47 47 49 50 49 48 48 49 48 46 45 45 46 47 49 49 48 48 48 48 49 49 46 44 46 47 48 49 48 47 44 40
51 50 51 51 47 52 54 55 55 54 53 49 52 49 43 49 44 38 44 41 40 45 47 44 45 46 49 49 46 49 49 45 43 45 48 45 46 39 40 38 37 35 31 33 33 42 35 32 32 33 40 41 44 47 48 48 48 49 48 48 48 48 48 48 47 47 47 45 49 50 49 49 48 47 49 50 49 48 45 48 46 47 46 44 45 44 42
51 52 51 50 51 52 53 53 53 53 50 48 47 48 45 39 44 43 42 41 38 40 45 43 48 45 49 49 46 43 54 50 49 46 43 38 45 42 37 35 41 36 32 27 36 36 35 34 35 37 41 43 46 46 47 47 46 46 47 48 48 47 47 46 45 46 47 46 48 49 49 49 49 49 48 49 51 50 49 49 47 48 46 44 42 42 42
53 53 54 55 52 52 50 50 49 48 50 48 42 37 38 40 40 40 41 37 37 42 50 48 44 47 48 47 47 47 52 53 50 47 44 38 45 40 36 34 38 34 29 31 36 35 33 31 29 32 44 46 47 47 47 46 47 47 47 48 47 47 47 46 46 47 49 48 46 47 48 48 49 49 50 51 51 49 49 50 51 47 45 43 40 39 40
51 52 54 54 48 48 47 43 48 45 38 39 39 36 38 36 38 38 39 43 45 42 48 50 49 49 48 48 46 48 51 54 46 44 41 39 45 42 37 34 35 31 33 36 34 32 30 28 28 39 44 45 46 46 46 46 47 47 46 47 49 48 46 43 43 43 42 45 46 47 47 47 48 48 50 51 50 50 51 50 50 47 46 42 41 42 42
52 51 50 49 44 47 46 37 44 44 39 37 37 34 34 33 35 37 37 45 48 50 48 44 47 44 46 47 48 51 45 48 45 43 42 44 39 38 39 32 30 33 35 32 31 29 28 38 38 40 46 45 45 45 45 45 45 45 45 44 43 42 42 42 41 42 42 44 44 46 47 47 48 48 49 51 51 50 49 47 46 45 43 42 42 42 43
48 48 47 45 41 41 37 31 43 41 37 37 36 34 32 31 33 33 38 49 46 42 49 45 48 48 45 50 46 51 45 42 47 39 37 39 38 40 37 34 36 35 31 29 28 28 29 32 42 43 43 44 44 45 45 44 43 42 41 41 41 41 40 40 40 40 41 42 43 43 45 48 49 48 49 50 51 51 49 47 45 43 42 41 43 43 43
46 41 38 36 36 38 34 33 33 36 37 35 36 36 37 36 36 41 46 45 43 44 45 50 51 46 47 48 45 48 45 44 44 42 42 41 38 35 32 32 31 30 30 28 27 24 29 39 37 45 43 43 42 41 41 40 39 39 38 39 39 40 40 41 41 41 40 40 41 42 43 45 46 47 47 48 49 49 49 49 44 44 43 43 42 42 43
47 46 40 37 35 36 39 32 31 32 31 31 33 34 33 36 40 41 43 43 41 44 53 55 52 47 47 46 45 44 44 44 40 39 39 37 36 32 32 29 29 29 27 26 27 30 37 39 38 40 40 39 39 38 38 38 37 37 37 38 39 38 40 40 40 40 40 40 40 41 43 44 46 47 46 47 47 47 48 47 45 44 45 43 43 43 44
40 41 41 36 35 34 32 34 33 31 31 33 29 30 32 38 38 40 46 47 47 52 52 50 48 47 46 47 42 39 42 44 39 40 42 37 35 35 30 30 28 28 29 28 28 34 33 35 35 37 37 37 37 36 36 36 36 37 38 38 38 38 38 39 40 40 40 41 41 42 46 44 44 47 46 45 45 44 46 48 48 49 48 48 47 45 43
48 44 38 36 38 34 30 30 31 33 33 32 32 33 36 38 40 52 51 48 53 52 50 46 46 44 42 45 42 40 38 45 36 31 35 36 33 28 27 26 24 23 31 40 39 34 33 33 36 37 36 36 36 36 36 36 37 39 39 39 39 39 40 40 40 41 42 41 42 44 45 45 45 45 46 44 44 43 46 48 47 47 48 46 45 43 42
41 40 44 41 40 36 33 31 28 24 23 25 30 33 37 40 50 54 52 48 51 49 48 50 49 44 43 39 36 36 32 38 37 33 32 28 28 24 22 25 26 29 30 39 31 32 32 31 35 36 37 38 38 36 39 38 40 40 40 40 39 41 41 42 42 41 42 43 44 44 45 44 46 47 47 48 45 45 46 45 46 45 45 45 44 43 42
45 41 39 40 38 37 36 34 32 31 32 31 34 35 43 49 50 51 52 51 51 47 46 47 47 44 35 35 31 29 28 32 33 29 27 24 26 25 27 30 31 32 34 31 31 30 32 35 39 39 40 40 40 41 40 40 40 40 39 40 40 38 39 41 41 41 43 44 44 44 45 47 46 46 46 46 46 44 44 46 46 45 44 43 43 42 41
39 38 38 38 38 37 35 33 31 30 27 27 30 38 45 46 52 52 52 51 49 47 45 45 41 37 32 29 32 32 34 32 32 30 21 31 30 31 30 33 33 30 30 30 31 29 33 41 42 42 41 40 41 41 41 40 39 39 39 38 39 40 41 40 40 41 42 42 43 44 46 46 46 47 46 45 44 45 44 44 46 46 44 42 42 42 41